Location: Newark
(7.0858°N, 171.3717°E)
Time: 02:17:43
(UTC+00:00)

A-11 Canister half - Pass Details

Date: 07 December 2020
Orbit: 1517 x 1683 km, 47.2° (Epoch: 16 January)

Event Time Altitude Azimuth Distance (km) Brightness Sun altitude
Rises 08:10:45 0° 292° (WNW) 4,923 12.3 -26.8°
Reaches altitude 10° 08:14:51 10° 279° (W) 3,924 11.8 -27.8°
Maximum altitude 08:22:09 23° 231° (SW) 3,001 11.1 -29.4°
Drops below altitude 10° 08:29:22 10° 183° (S) 3,848 11.3 -31.1°
Sets 08:33:25 0° 169° (S) 4,806 11.7 -32.0°
